This is the latest recevied weather packets stored in our database for station/object DG8SF-13. If no packets are shown the sender has not sent any weather packets the latest 10 day(s).
| Time | Temp. | Humidity | Pressure | Rain* | Wind** | Luminosity | Snow |
|---|---|---|---|---|---|---|---|
| 1787995502 | 21.67° C | 67% | 1017.4 hPa | 0 mm | - | - | - |
| 1787995188 | 21.67° C | 64% | 1017.4 hPa | 0 mm | - | - | - |
| 1787994880 | 21.67° C | 70% | 1017.4 hPa | 0 mm | - | - | - |
| 1787994506 | 21.11° C | 69% | 1017.6 hPa | 0 mm | - | - | - |
| 1787994194 | 21.67° C | 67% | 1017.5 hPa | 0 mm | - | - | - |
| 1787993881 | 20.56° C | 70% | 1017.5 hPa | 0 mm | - | - | - |
| 1787993547 | 21.67° C | 71% | 1017.4 hPa | 0 mm | - | - | - |
| 1787993221 | 21.11° C | 73% | 1017.5 hPa | 0 mm | - | - | - |
| 1787992850 | 20° C | 72% | 1017.5 hPa | 0 mm | - | - | - |
| 1787992514 | 20.56° C | 74% | 1017.5 hPa | 0 mm | - | - | - |
| 1787992167 | 20.56° C | 72% | 1017.5 hPa | 0 mm | - | - | - |
| 1787991853 | 20° C | 76% | 1017.4 hPa | 0 mm | - | - | - |
| 1787991543 | 19.44° C | 75% | 1017.4 hPa | 0 mm | - | - | - |
| 1787991218 | 21.11° C | 74% | 1017.4 hPa | 0 mm | - | - | - |
| 1787990881 | 20° C | 76% | 1017.4 hPa | 0 mm | - | - | - |
| 1787990569 | 18.89° C | 79% | 1017.4 hPa | 0 mm | - | - | - |
| 1787990260 | 20° C | 74% | 1017.4 hPa | 0 mm | - | - | - |
| 1787989946 | 18.89° C | 82% | 1017.3 hPa | 0 mm | - | - | - |
| 1787989636 | 18.89° C | 80% | 1017.4 hPa | 0 mm | - | - | - |
| 1787989298 | 18.33° C | 82% | 1017.4 hPa | 0 mm | - | - | - |
| 1787988974 | 18.33° C | 82% | 1017.5 hPa | 0 mm | - | - | - |
| 1787988662 | 17.78° C | 86% | 1017.4 hPa | 0 mm | - | - | - |
| 1787988315 | 17.22° C | 86% | 1017.4 hPa | 0 mm | - | - | - |
| 1787988002 | 17.22° C | 86% | 1017.4 hPa | 0 mm | - | - | - |
| 1787987679 | 16.67° C | 88% | 1017.3 hPa | 0 mm | - | - | - |
* Rain latest hour (hover to see other rain measurements)
** Current wind speed in m/s (hover to see current wind gust speed)